When you browse on this site, cookies collect data to enhance your experience and personalize the content and advertising you see.
Visit our Privacy Policy to learn more. By continuing to use the site, you agree to this use of cookies and data.
  • In Romania
  • List of Countries
  • For 7 days
  • Water Temperature
  • Satellite Maps
  • Weather Map
  • Weather Widgets
  • user-avatar
    Login

    Hourly Weather Myslakow

    Today, 21 May, Tuesday

    Time Temperature Precipitation Wind Pressure Humidity
    00:00 +12°C° 0 mm 2 mps 732 mmHg 92%
    01:00 +12°C° 0 mm 2 mps 732 mmHg 93%
    02:00 +12°C° 0 mm 2 mps 732 mmHg 93%
    03:00 +10°C° 0 mm 2 mps 732 mmHg 93%
    04:00 +11°C° 0 mm 1 mps 732 mmHg 93%
    05:00 +12°C° 0 mm 1 mps 732 mmHg 89%
    06:00 +14°C° 0 mm 1 mps 733 mmHg 85%
    07:00 +16°C° 0 mm 1 mps 733 mmHg 80%
    08:00 +18°C° 0 mm 1 mps 733 mmHg 76%
    09:00 +19°C° 0 mm 1 mps 733 mmHg 71%
    10:00 +20°C° 0 mm 1 mps 733 mmHg 67%
    11:00 +20°C° 0 mm 1 mps 733 mmHg 67%
    12:00 +20°C° 0 mm 1 mps 733 mmHg 68%
    13:00 +20°C° 0 mm 1 mps 733 mmHg 68%
    14:00 +21°C° 0 mm 1 mps 732 mmHg 67%
    15:00 +20°C° 0 mm 2 mps 732 mmHg 65%
    16:00 +21°C° 0 mm 2 mps 732 mmHg 63%
    17:00 +19°C° 0.1 mm 2 mps 732 mmHg 69%
    18:00 +18°C° 0.1 mm 2 mps 732 mmHg 74%
    19:00 +17°C° 0.1 mm 2 mps 732 mmHg 79%
    20:00 +17°C° 0.1 mm 3 mps 732 mmHg 80%
    21:00 +16°C° 0.1 mm 3 mps 732 mmHg 80%
    22:00 +14°C° 0.1 mm 4 mps 732 mmHg 80%
    23:00 +14°C° 0.6 mm 4 mps 732 mmHg 84%

    Tomorrow, 22 May, Wednesday

    Time Temperature Precipitation Wind Pressure Humidity
    00:00 +14°C° 0.6 mm 5 mps 732 mmHg 87%
    01:00 +14°C° 0.6 mm 5 mps 732 mmHg 91%
    02:00 +14°C° 1.4 mm 6 mps 732 mmHg 92%
    03:00 +14°C° 1.4 mm 6 mps 732 mmHg 94%
    04:00 +14°C° 1.4 mm 6 mps 732 mmHg 95%
    05:00 +14°C° 1.1 mm 6 mps 733 mmHg 95%
    06:00 +14°C° 1.1 mm 6 mps 733 mmHg 96%
    07:00 +14°C° 1.1 mm 6 mps 733 mmHg 96%
    08:00 +14°C° 0.7 mm 6 mps 733 mmHg 96%
    09:00 +14°C° 0.7 mm 6 mps 734 mmHg 95%
    10:00 +14°C° 0.7 mm 7 mps 734 mmHg 95%
    11:00 +14°C° 0.3 mm 7 mps 734 mmHg 94%
    12:00 +14°C° 0.3 mm 7 mps 735 mmHg 94%
    13:00 +13°C° 0.3 mm 8 mps 735 mmHg 93%
    14:00 +13°C° 0.1 mm 8 mps 735 mmHg 93%
    15:00 +13°C° 0.1 mm 8 mps 735 mmHg 92%
    16:00 +13°C° 0.1 mm 9 mps 736 mmHg 91%
    17:00 +12°C° 0 mm 8 mps 736 mmHg 91%
    18:00 +12°C° 0 mm 8 mps 736 mmHg 90%
    19:00 +11°C° 0 mm 8 mps 737 mmHg 90%
    20:00 +11°C° 0 mm 8 mps 737 mmHg 90%
    21:00 +11°C° 0 mm 8 mps 738 mmHg 90%
    22:00 +11°C° 0 mm 8 mps 738 mmHg 91%
    23:00 +11°C° 0 mm 7 mps 738 mmHg 91%

    Day after tomorrow, 23 May, Thursday

    Time Temperature Precipitation Wind Pressure Humidity
    00:00 +11°C° 0 mm 7 mps 739 mmHg 91%
    01:00 +10°C° 0 mm 7 mps 739 mmHg 91%
    02:00 +10°C° 0.1 mm 7 mps 739 mmHg 91%
    03:00 +10°C° 0.1 mm 7 mps 739 mmHg 91%
    04:00 +9°C° 0.1 mm 7 mps 739 mmHg 92%
    05:00 +9°C° 0.1 mm 7 mps 740 mmHg 92%
    06:00 +9°C° 0.1 mm 7 mps 740 mmHg 92%
    07:00 +9°C° 0.1 mm 7 mps 741 mmHg 92%
    08:00 +9°C° 0.1 mm 7 mps 741 mmHg 91%
    09:00 +9°C° 0.1 mm 6 mps 741 mmHg 90%
    10:00 +9°C° 0.1 mm 6 mps 742 mmHg 89%
    11:00 +9°C° 0 mm 5 mps 742 mmHg 86%
    12:00 +10°C° 0 mm 5 mps 742 mmHg 83%
    13:00 +12°C° 0 mm 4 mps 742 mmHg 80%
    14:00 +13°C° 0 mm 4 mps 742 mmHg 75%
    15:00 +14°C° 0 mm 4 mps 742 mmHg 69%
    16:00 +17°C° 0 mm 4 mps 741 mmHg 64%
    17:00 +15°C° 0 mm 4 mps 741 mmHg 67%
    18:00 +14°C° 0 mm 3 mps 741 mmHg 71%
    19:00 +13°C° 0 mm 3 mps 741 mmHg 74%
    20:00 +12°C° 0 mm 3 mps 742 mmHg 75%
    21:00 +10°C° 0 mm 2 mps 742 mmHg 76%
    22:00 +9°C° 0 mm 2 mps 742 mmHg 77%
    23:00 +8°C° 0 mm 2 mps 742 mmHg 79%

    24 May, Friday

    Time Temperature Precipitation Wind Pressure Humidity
    00:00 +8°C° 0 mm 2 mps 742 mmHg 81%
    01:00 +7°C° 0 mm 2 mps 742 mmHg 83%
    02:00 +7°C° 0 mm 2 mps 742 mmHg 85%
    03:00 +6°C° 0 mm 2 mps 742 mmHg 88%
    04:00 +6°C° 0 mm 2 mps 742 mmHg 90%
    05:00 +8°C° 0 mm 2 mps 742 mmHg 85%
    06:00 +10°C° 0 mm 2 mps 742 mmHg 79%
    07:00 +13°C° 0 mm 2 mps 742 mmHg 73%
    08:00 +14°C° 0 mm 2 mps 742 mmHg 70%
    09:00 +15°C° 0 mm 2 mps 741 mmHg 66%
    10:00 +17°C° 0 mm 2 mps 741 mmHg 63%
    11:00 +17°C° 0 mm 2 mps 741 mmHg 61%
    12:00 +18°C° 0 mm 2 mps 741 mmHg 60%
    13:00 +18°C° 0 mm 2 mps 740 mmHg 58%
    14:00 +20°C° 0 mm 1 mps 740 mmHg 57%
    15:00 +20°C° 0 mm 1 mps 739 mmHg 56%
    16:00 +20°C° 0 mm 1 mps 739 mmHg 56%
    17:00 +19°C° 0 mm 1 mps 739 mmHg 61%
    18:00 +18°C° 0 mm 1 mps 739 mmHg 67%
    19:00 +16°C° 0 mm 1 mps 738 mmHg 72%
    20:00 +15°C° 0 mm 2 mps 738 mmHg 75%
    21:00 +14°C° 0 mm 2 mps 738 mmHg 77%
    22:00 +11°C° 0 mm 3 mps 738 mmHg 80%
    23:00 +11°C° 0 mm 3 mps 738 mmHg 79%

    25 May, Saturday

    Time Temperature Precipitation Wind Pressure Humidity
    00:00 +11°C° 0 mm 3 mps 738 mmHg 79%
    01:00 +11°C° 0 mm 3 mps 738 mmHg 78%
    02:00 +11°C° 0.1 mm 3 mps 738 mmHg 81%
    03:00 +11°C° 0.1 mm 3 mps 738 mmHg 85%
    04:00 +10°C° 0.1 mm 3 mps 738 mmHg 88%
    05:00 +11°C° 0 mm 3 mps 738 mmHg 88%
    06:00 +12°C° 0 mm 4 mps 739 mmHg 87%
    07:00 +13°C° 0 mm 4 mps 739 mmHg 87%
    08:00 +13°C° 0 mm 5 mps 739 mmHg 82%
    09:00 +14°C° 0 mm 5 mps 739 mmHg 77%
    10:00 +14°C° 0 mm 5 mps 740 mmHg 72%
    11:00 +15°C° 0 mm 5 mps 739 mmHg 69%
    12:00 +15°C° 0 mm 5 mps 739 mmHg 66%
    13:00 +16°C° 0 mm 6 mps 739 mmHg 63%
    14:00 +16°C° 0 mm 6 mps 739 mmHg 64%
    15:00 +16°C° 0 mm 6 mps 739 mmHg 66%
    16:00 +15°C° 0 mm 6 mps 739 mmHg 67%
    17:00 +14°C° 0 mm 5 mps 739 mmHg 71%
    18:00 +13°C° 0 mm 4 mps 739 mmHg 76%
    19:00 +12°C° 0 mm 4 mps 739 mmHg 80%
    20:00 +10°C° 0 mm 3 mps 739 mmHg 83%
    21:00 +9°C° 0 mm 3 mps 739 mmHg 87%
    22:00 +8°C° 0 mm 3 mps 739 mmHg 91%
    23:00 +8°C° 0 mm 3 mps 739 mmHg 91%

    26 May, Sunday

    Time Temperature Precipitation Wind Pressure Humidity
    00:00 +8°C° 0 mm 3 mps 739 mmHg 91%
    01:00 +7°C° 0 mm 3 mps 739 mmHg 91%
    02:00 +8°C° 0 mm 3 mps 739 mmHg 91%
    03:00 +8°C° 0 mm 3 mps 739 mmHg 90%
    04:00 +8°C° 0 mm 3 mps 738 mmHg 90%
    05:00 +8°C° 0 mm 4 mps 738 mmHg 85%
    06:00 +9°C° 0 mm 5 mps 738 mmHg 79%
    07:00 +10°C° 0 mm 6 mps 738 mmHg 74%
    08:00 +10°C° 0 mm 7 mps 739 mmHg 72%
    09:00 +11°C° 0 mm 7 mps 739 mmHg 69%
    10:00 +11°C° 0 mm 7 mps 739 mmHg 66%
    11:00 +12°C° 0 mm 7 mps 738 mmHg 65%
    12:00 +12°C° 0 mm 7 mps 738 mmHg 64%
    13:00 +14°C° 0 mm 7 mps 738 mmHg 62%
    14:00 +14°C° 0 mm 7 mps 738 mmHg 63%
    15:00 +12°C° 0 mm 7 mps 738 mmHg 64%
    16:00 +12°C° 0 mm 7 mps 738 mmHg 64%
    17:00 +13°C° 0 mm 6 mps 738 mmHg 69%
    18:00 +12°C° 0 mm 5 mps 737 mmHg 74%
    19:00 +12°C° 0 mm 4 mps 737 mmHg 79%
    20:00 +11°C° 0.1 mm 4 mps 738 mmHg 83%
    21:00 +10°C° 0.1 mm 3 mps 738 mmHg 87%
    22:00 +9°C° 0.1 mm 3 mps 738 mmHg 90%
    23:00 +9°C° 0 mm 3 mps 738 mmHg 89%
    Show more